STARLINK-2501, 48330

Orbit data source: Space-Track

STARLINK-2501, 48330 is a payload satellite owned by SpaceX/Seattle (US) in LEO that was launched on Thu, 29 Apr 2021 UTC via an FALCON 9 launch vehicle from the Air Force Eastern Test Range (AFETR). Payload-class satellites include a variety of spacecraft equipped with specific instruments for various scientific and technological missions. These include communications satellites like Starlink; space stations such as the ISS; scientific satellites like the Hubble; Earth observation satellites from companies like Planet Labs, Umbra, and HawkEye 360; GPS; miniature CubeSats for education and research; and military/defense satellites.

Loading next visibility...
Identifier
48330, 2021-036BG
Orbit
LEO
Country
Flag of USUS
Related business
Manufacturer
SpaceX/Seattle
Mission
Operational Commercial Communications
Bus & Motor
STARLINK, Unknown motor
Mass
260 kg wet, ~248 kg dry
Launch date (UTC)
2021-04-29 (4 years ago)
Launch vehicle
FALCON 9
Launch site
Air Force Eastern Test Range (AFETR)
Object type
Payload
Rocket body
Debris
Shape & HBR
Box + 1 Pan, 10.1 m
Radar Cross Section
13.562 m², Large (>1 m²)

Expand to show TLE details & history
Last TLE update: 22 hours ago

TLE from 22 hours ago
0 STARLINK-2501
1 48330U 21036BG  25290.96923882  .00005926  00000-0  41618-3 0  9990
2 48330  53.0558  22.3127 0002236  77.5270 282.5969 15.06422060246520
Epoch: 2025-10-17T23:15Z
TLE epoch observation values (Epoch: 2025-10-17T23:15:42.234Z)
Latitude
-0.00001°
Longitude
6.67973°
Altitude
547.686 km
Speed
7.59 km/s
True Right ascension
01h 29m 15s
True Declination
0° 00' 00"
Sunlit
Object was in full shadow at epoch
Visualization orbit readout
Latitude
Unknown
Longitude
Unknown
Altitude
Unknown
Speed
Unknown
Apparent Right ascension
Unknown
Apparent Declination
Unknown
Sunlit
N/A
Visualization observer readout
Local Sidereal Time
15:37:30
Azimuth
Unknown
Elevation
Unknown
Doppler factor
Unknown
Orbital elements
Apogee altitude
548.963 km
Perigee altitude
545.866 km
Semi-major axis
6,925.551 km
Eccentricity
0.00022
Inclination
53.0558°
RAAN
22.3127°
Arg. of periapsis
77.527°
True anomaly
282.57189°
Mean anomaly
282.5969°
Eccentric anomaly
282.5844°
Mean motion
3.76584 °/min
Orbital period
95.6 mins
BSTAR
0.00041618
Loading maneuver chart data...
Computing Atmospheric mass density...
Loading historical data...
Loading historical data...
Loading historical data...
Loading historical data...
Loading historical data...
Loading historical data...
Loading historical data...

Documentation

Showing up to 5 results
|